WN8IZV Weather Reports


Display with metric or nautical units.
time (UTC)temp
F
wind
direction
speed
MPH
gust
MPH
rain 1hr
in
rain 24hr
in
rain mn
in
humidity
%
barometer
mb
20260502151551 44 314 2.0 5.0 0.00 0.01 0.00 72 1018.3
20260502123034 41 333 0.0 3.0 0.00 0.01 0.00 73 1018.4
20260502121528 40 312 0.0 2.0 0.00 0.01 0.00 72 1018.5
20260502114529 38 347 0.0 2.0 0.00 0.01 0.00 72 1018.4
20260502113024 37 350 0.0 1.0 0.00 0.01 0.00 71 1018.3
20260502111519 35 10 0.0 0.0 0.00 0.01 0.00 71 1018.2
20260502110019 34 10 0.0 0.0 0.00 0.01 0.00 71 1018.1
20260502104520 35 10 0.0 0.0 0.00 0.01 0.00 71 1018.0
20260502103013 35 10 0.0 0.0 0.00 0.01 0.00 71 1018.1
20260502101510 36 10 0.0 0.0 0.00 0.01 0.00 71 1017.9
20260502091506 36 10 0.0 1.0 0.00 0.01 0.00 71 1017.7
20260502080105 37 21 0.0 2.0 0.00 0.01 0.00 71 1017.6
20260502070059 37 5 0.0 0.0 0.00 0.01 0.00 71 1017.7
20260502064614 37 5 0.0 1.0 0.00 0.01 0.00 71 1017.7
20260502063054 37 30 0.0 1.0 0.00 0.01 0.00 71 1017.9
20260502061544 37 52 0.0 1.0 0.00 0.01 0.00 71 1018.1
20260502060046 37 72 0.0 0.0 0.00 0.01 0.00 71 1018.3
20260502054538 37 72 0.0 1.0 0.00 0.01 0.00 71 1018.3
20260502053034 38 348 0.0 4.0 0.00 0.01 0.00 71 1018.3
20260502051534 38 64 0.0 2.0 0.00 0.01 0.00 71 1018.2
20260502050030 38 34 0.0 2.0 0.00 0.01 0.00 71 1018.0
20260502044525 38 32 0.0 1.0 0.00 0.01 0.00 71 1017.9
20260502043022 38 32 0.0 1.0 0.00 0.01 0.00 71 1017.9
20260502041526 38 65 0.0 1.0 0.00 0.01 0.00 71 1017.7
20260502040021 38 65 0.0 2.0 0.00 0.01 0.00 71 1017.8
20260502034514 38 333 0.0 2.0 0.00 0.01 0.01 71 1017.7
20260502033021 38 56 0.0 1.0 0.00 0.01 0.01 71 1017.9
20260502031507 38 51 0.0 4.0 0.00 0.01 0.01 71 1017.7
20260502030005 39 51 2.0 5.0 0.00 0.01 0.01 71 1017.8
20260502024506 39 60 0.0 4.0 0.00 0.01 0.01 71 1017.8
20260502023104 39 82 1.0 4.0 0.00 0.01 0.01 71 1017.5
20260502021555 39 84 1.0 4.0 0.00 0.01 0.01 71 1017.3
20260502020050 39 61 0.0 1.0 0.00 0.01 0.01 71 1017.0
20260502014547 40 75 0.0 2.0 0.00 0.01 0.01 71 1016.9
20260502013050 40 74 0.0 2.0 0.01 0.01 0.01 71 1016.6
20260502011541 40 72 0.0 2.0 0.01 0.01 0.01 71 1016.6
20260502010037 40 79 0.0 3.0 0.01 0.01 0.01 71 1016.4
20260502004540 40 75 0.0 2.0 0.01 0.01 0.01 71 1016.3
20260502003028 40 62 1.0 3.0 0.00 0.00 0.00 71 1016.2
20260502001525 42 41 1.0 3.0 0.00 0.00 0.00 71 1016.1
20260502000023 43 91 0.0 3.0 0.00 0.00 0.00 71 1016.0
20260501234517 43 68 0.0 2.0 0.00 0.00 0.00 71 1015.7
20260501233015 44 66 0.0 4.0 0.00 0.00 0.00 71 1015.4
20260501231512 44 349 0.0 3.0 0.00 0.00 0.00 71 1015.3
20260501230020 44 58 0.0 3.0 0.00 0.00 0.00 71 1015.3
20260501224509 44 73 1.0 4.0 0.00 0.00 0.00 71 1015.3
20260501223006 44 89 1.0 4.0 0.00 0.00 0.00 71 1015.2
20260501221503 46 65 2.0 5.0 0.00 0.00 0.00 71 1015.1
20260501220002 47 268 0.0 3.0 0.00 0.00 0.00 72 1014.9
20260501214600 48 15 1.0 6.0 0.00 0.00 0.00 72 1014.7
20260501213104 48 42 2.0 9.0 0.00 0.00 0.00 72 1014.6
20260501211600 48 25 2.0 7.0 0.00 0.00 0.00 72 1014.6
20260501210055 48 33 2.0 6.0 0.00 0.00 0.00 72 1014.2
20260501204606 47 21 3.0 9.0 0.00 0.00 0.00 72 1014.3
20260501203050 48 205 4.0 8.0 0.00 0.00 0.00 72 1014.3
20260501201548 49 323 2.0 7.0 0.00 0.00 0.00 73 1014.2
20260501200046 49 354 2.0 5.0 0.00 0.00 0.00 73 1014.2
20260501194547 48 330 2.0 7.0 0.00 0.00 0.00 73 1014.3
20260501193142 48 46 1.0 3.0 0.00 0.00 0.00 73 1014.2
20260501191543 48 342 2.0 6.0 0.00 0.00 0.00 73 1014.2
20260501190043 48 23 0.0 7.0 0.00 0.00 0.00 73 1014.0
20260501184544 47 4 2.0 9.0 0.00 0.00 0.00 73 1014.1
20260501183037 48 342 1.0 5.0 0.00 0.00 0.00 73 1013.8
20260501181531 49 282 2.0 4.0 0.00 0.00 0.00 73 1013.7
20260501180029 50 66 0.0 4.0 0.00 0.00 0.00 74 1013.6
20260501174527 49 262 1.0 4.0 0.00 0.00 0.00 74 1013.7
20260501173024 48 32 2.0 6.0 0.00 0.00 0.00 74 1013.8
20260501171528 48 299 0.0 4.0 0.00 0.00 0.00 74 1013.8
20260501170020 48 355 0.0 3.0 0.00 0.00 0.00 74 1013.8
20260501164517 48 56 2.0 7.0 0.00 0.00 0.00 74 1013.9
20260501163015 50 20 1.0 4.0 0.00 0.00 0.00 75 1013.7
20260501161514 49 34 1.0 6.0 0.00 0.00 0.00 75 1013.8
20260501160008 47 9 1.0 5.0 0.00 0.00 0.00 74 1014.1
20260501154507 47 347 1.0 4.0 0.00 0.00 0.00 74 1014.1